International Falls, MN

8:07 PM CDT on August 20, 2017 (GMT -0500)
Falls International

Weather History for KINL - February, 2014

Change the Weather History Date:

Monday, February 17, 2014

  Actual Average Record
Temperature  
Mean Temperature 17 °F 11 °F  
Max Temperature 22 °F 23 °F 58 °F (2017)
Min Temperature 12 °F -1 °F -37 °F (1967)
Degree Days  
Heating Degree Days 48 54  
Month to date heating degree days 1167 964  
Since 1 July heating degree days 7782 7017  
Cooling Degree Days 0 0  
Month to date cooling degree days 0 0  
Year to date cooling degree days 0 0  
Moisture  
Dew Point 13 °F    
Average Humidity 78    
Maximum Humidity 88    
Minimum Humidity 67    
Precipitation  
Precipitation 0.16 in 0.02 in 0.28 in (1898)
Month to date precipitation 0.41 0.31  
Year to date precipitation 1.23 0.93  
Snow  
Snow 3.90 in 0.40 in 8.00 in (2009)
Month to date snowfall 10.5 6.5  
Since 1 July snowfall 64.7 52.5  
Snow Depth 26.00 in    
Sea Level Pressure  
Sea Level Pressure 29.71 in    
Wind  
Wind Speed 7 mph (SSE)    
Max Wind Speed 16 mph    
Max Gust Speed 23 mph    
Visibility 3 miles    
Events Fog , Snow    
T = Trace of Precipitation, MM = Missing Value Source: NWS Daily Summary

Daily Weather History Graph

Daily Weather History Graph

Search for Another Location

Airport or City:

Trip Planner

Search our weather history database for the weather conditions in past years. The results will help you decide how hot, cold, wet, or windy it might be!

Date:

Astronomy

Feb. 17, 2014 Rise Set
Actual Time 7:17 AM CST 5:38 PM CST
Civil Twilight 6:45 AM CST 6:10 PM CST
Nautical Twilight 6:08 AM CST 6:47 PM CST
Astronomical Twilight 5:32 AM CST 7:23 PM CST
Moon 8:51 PM CST (2/17) 8:02 AM CST (2/17)
Length of Visible Light 11h 25m
Length of Day
10h 20m
Waning Gibbous, 93% of the Moon is Illuminated
Feb 17
Waning Gibbous
Feb 22
Last Quarter
Mar 1
New
Mar 8
First Quarter
Mar 16
Full

Hourly Weather History & Observations

Time (CST) Temp. Windchill Dew Point Humidity Pressure Visibility Wind Dir Wind Speed Gust Speed Precip Events Conditions
12:55 AM 12.0 °F -3.4 °F 3.9 °F 70% 30.00 in 6.0 mi SE 13.8 mph - 0.00 in Snow Light Snow
1:27 AM 12.0 °F -2.0 °F 6.1 °F 77% 29.88 in 2.5 mi SE 11.5 mph - 0.00 in Snow Light Snow
1:31 AM 12.0 °F -3.4 °F 6.1 °F 77% 29.88 in 1.8 mi SE 13.8 mph - 0.00 in Snow Light Snow
1:55 AM 12.0 °F -2.7 °F 7.0 °F 80% 29.94 in 1.2 mi SE 12.7 mph - 0.00 in Snow Light Snow
2:55 AM 12.9 °F -2.2 °F 9.0 °F 84% 29.88 in 1.0 mi SE 13.8 mph - 0.00 in Snow Light Snow
3:10 AM 12.9 °F -0.9 °F 9.0 °F 84% 29.80 in 0.8 mi SSE 11.5 mph - 0.00 in Snow Light Snow
3:27 AM 14.0 °F 2.0 °F 9.0 °F 80% 29.79 in 1.0 mi SSE 9.2 mph - 0.00 in Snow Light Snow
3:55 AM 14.0 °F 2.9 °F 10.0 °F 84% 29.86 in 1.0 mi SSE 8.1 mph - 0.00 in Snow Light Snow
4:41 AM 15.1 °F 2.5 °F 10.9 °F 84% 29.75 in 3.0 mi SSE 10.4 mph - 0.00 in Snow Light Snow
4:51 AM 15.8 °F 5.1 °F 10.4 °F 79% 29.75 in 5.0 mi SSE 8.1 mph - 0.00 in Snow Light Snow
4:55 AM 16.0 °F 4.4 °F 10.9 °F 81% 29.83 in 4.0 mi SSE 9.2 mph - 0.00 in Snow Light Snow
5:55 AM 16.0 °F 5.3 °F 10.9 °F 81% 29.81 in 10.0 mi SSE 8.1 mph - 0.00 in   Overcast
6:28 AM 16.0 °F 2.9 °F 10.9 °F 81% 29.72 in 1.8 mi SSE 11.5 mph - 0.00 in Snow Light Snow
6:41 AM 16.0 °F 5.3 °F 10.9 °F 81% 29.72 in 1.2 mi SSE 8.1 mph 19.6 mph 0.00 in Snow Light Snow
6:55 AM 16.0 °F 4.4 °F 12.0 °F 84% 29.80 in 1.0 mi SSE 9.2 mph - 0.00 in Snow Light Snow
7:02 AM 16.0 °F 4.4 °F 12.0 °F 84% 29.72 in 0.8 mi SSE 9.2 mph - 0.00 in Snow Light Snow
7:23 AM 16.0 °F 4.4 °F 12.0 °F 84% 29.72 in 1.2 mi SSE 9.2 mph - 0.00 in Snow Light Snow
7:36 AM 16.0 °F 3.6 °F 12.0 °F 84% 29.71 in 1.5 mi SSE 10.4 mph - 0.00 in Snow Light Snow
7:55 AM 16.0 °F 2.9 °F 12.0 °F 84% 29.78 in 1.2 mi SSE 11.5 mph - 0.00 in Snow Light Snow
8:08 AM 16.0 °F 3.6 °F 10.9 °F 81% 29.70 in 1.5 mi SSE 10.4 mph 19.6 mph 0.00 in Snow Light Snow
8:24 AM 16.0 °F 4.4 °F 10.9 °F 81% 29.70 in 2.5 mi SSE 9.2 mph - 0.00 in Snow Light Snow
8:43 AM 16.0 °F 4.4 °F 10.9 °F 81% 29.69 in 1.2 mi SSE 9.2 mph - 0.00 in Snow Light Snow
8:55 AM 16.0 °F 3.6 °F 12.0 °F 84% 29.76 in 0.5 mi SSE 10.4 mph - 0.00 in Fog , Snow Light Snow
9:05 AM 16.0 °F 3.6 °F 12.0 °F 84% 29.68 in 0.5 mi SSE 10.4 mph - 0.00 in Fog , Snow Snow
9:16 AM 16.0 °F 4.4 °F 12.0 °F 84% 29.68 in 1.0 mi SSE 9.2 mph - 0.01 in Snow Light Snow
9:22 AM 17.1 °F 4.3 °F 10.9 °F 77% 29.68 in 3.0 mi SSE 11.5 mph 17.3 mph 0.01 in Snow Light Snow
9:30 AM 17.1 °F 5.8 °F 10.9 °F 77% 29.68 in 5.0 mi SSE 9.2 mph - 0.01 in Snow Light Snow
9:38 AM 17.1 °F 5.8 °F 10.9 °F 77% 29.68 in 1.8 mi SSE 9.2 mph - 0.01 in Snow Light Snow
9:51 AM 17.6 °F 7.3 °F 12.2 °F 79% 29.67 in 1.0 mi SSE 8.1 mph - 0.03 in Snow Light Snow
9:55 AM 17.1 °F 6.6 °F 12.0 °F 81% 29.75 in 0.8 mi SSE 8.1 mph - 0.10 in Snow Light Snow
10:38 AM 17.1 °F 6.6 °F 12.0 °F 81% 29.67 in 1.2 mi SSE 8.1 mph - 0.00 in Snow Light Snow
10:55 AM 18.0 °F 8.7 °F 12.9 °F 81% 29.74 in 0.8 mi Variable 6.9 mph - 0.00 in Snow Light Snow
11:21 AM 18.0 °F 11.1 °F 12.9 °F 81% 29.67 in 1.2 mi Variable 4.6 mph - 0.01 in Snow Light Snow
11:38 AM 18.0 °F 9.8 °F 12.9 °F 81% 29.66 in 0.8 mi SSE 5.8 mph - 0.02 in Snow Light Snow
11:55 AM 18.0 °F 6.9 °F 14.0 °F 84% 29.73 in 0.5 mi SSE 9.2 mph - 0.02 in Fog , Snow Snow
12:27 PM 19.0 °F 12.3 °F 15.1 °F 85% 29.64 in 0.2 mi SSE 4.6 mph - 0.02 in Fog , Snow Heavy Snow
12:37 PM 19.0 °F 10.0 °F 15.1 °F 85% 29.63 in 0.5 mi SSE 6.9 mph - 0.02 in Fog , Snow Snow
12:55 PM 19.9 °F 12.1 °F 16.0 °F 85% 29.70 in 0.8 mi Variable 5.8 mph - 0.03 in Snow Light Snow
1:03 PM 19.9 °F 11.1 °F 16.0 °F 85% 29.62 in 0.8 mi Variable 6.9 mph - 0.00 in Snow Light Snow
1:13 PM 19.9 °F 12.1 °F 16.0 °F 85% 29.62 in 1.2 mi Variable 5.8 mph - 0.00 in Snow Light Snow
1:55 PM 19.9 °F 13.4 °F 16.0 °F 85% 29.70 in 1.0 mi Variable 4.6 mph - 0.00 in Snow Light Snow
2:03 PM 21.0 °F 13.4 °F 16.0 °F 81% 29.61 in 0.8 mi South 5.8 mph - 0.00 in Snow Light Snow
2:13 PM 19.9 °F 12.1 °F 16.0 °F 85% 29.61 in 1.0 mi South 5.8 mph - 0.00 in Snow Light Snow
2:32 PM 19.9 °F 10.1 °F 16.0 °F 85% 29.60 in 0.8 mi SSE 8.1 mph - 0.01 in Snow Light Snow
2:55 PM 21.0 °F 14.6 °F 17.1 °F 85% 29.67 in 2.0 mi SSE 4.6 mph - 0.01 in Snow Light Snow
3:14 PM 21.0 °F 13.4 °F 16.0 °F 81% 29.60 in 2.5 mi Variable 5.8 mph - 0.00 in Snow Light Snow
3:28 PM 21.0 °F 12.4 °F 16.0 °F 81% 29.60 in 3.0 mi South 6.9 mph - 0.00 in   Haze
3:35 PM 21.9 °F 14.5 °F 16.0 °F 78% 29.60 in 5.0 mi SSW 5.8 mph - 0.00 in   Haze
3:55 PM 21.9 °F 11.7 °F 16.0 °F 78% 29.68 in 10.0 mi SSW 9.2 mph - 0.00 in   Overcast
4:07 PM 21.9 °F 13.4 °F 15.1 °F 75% 29.61 in 10.0 mi Variable 6.9 mph - N/A   Overcast
4:55 PM 21.9 °F 13.4 °F 16.0 °F 78% 29.68 in 9.0 mi SSW 6.9 mph - N/A   Overcast
5:55 PM 21.9 °F 17.2 °F 16.0 °F 78% 29.68 in 10.0 mi Variable 3.5 mph - N/A   Overcast
6:15 PM 21.0 °F 12.4 °F 16.0 °F 81% 29.62 in 9.0 mi SSW 6.9 mph - N/A   Overcast
6:55 PM 21.9 °F 14.5 °F 17.1 °F 82% 29.68 in 9.0 mi South 5.8 mph - N/A   Overcast
7:28 PM 21.9 °F 15.7 °F 17.1 °F 82% 29.60 in 9.0 mi South 4.6 mph - N/A   Overcast
7:52 PM 21.2 °F 14.9 °F 17.6 °F 86% 29.58 in 9.0 mi South 4.6 mph - N/A   Overcast
7:55 PM 21.9 °F 15.7 °F 17.1 °F 82% 29.65 in 9.0 mi South 4.6 mph - N/A   Overcast
8:55 PM 19.0 °F 13.9 °F 16.0 °F 88% 29.64 in 7.0 mi SSE 3.5 mph - N/A   Partly Cloudy
9:55 PM 19.0 °F 11.1 °F 15.1 °F 85% 29.63 in 7.0 mi South 5.8 mph - N/A   Clear
10:55 PM 19.0 °F 12.3 °F 16.0 °F 88% 29.61 in 6.0 mi South 4.6 mph - N/A   Clear
11:55 PM 19.9 °F 12.1 °F 17.1 °F 89% 29.59 in 6.0 mi SSE 5.8 mph - N/A   Overcast